Home   Weather   Linköping   Past weeks

Flag for Sweden Past Weather in Linköping, Sweden — Yesterday and Last 2 Weeks

Now
39 °F

Passing clouds.


Feels Like: 34 °F
Forecast: 32 / 40 °F
Wind: 7 mph from West

Location: Linkoping / Saab

Current Time: Jan 20, 2017 at 11:18:49 pm

Latest Report: Jan 20, 2017 at 10:20 pm


Visibility: N/A

Pressure: 30.24 "Hg

Humidity: 87%

Dew Point: 36 °F

Location of LinköpingLocation

Past Weather in Linköping — Graph

°F

Linköping Temperature Yesterday

Maximum temperature yesterday: 45 °F (at 12:20 pm)
Minimum temperature yesterday: 39 °F (at 4:20 am)
Average temperature yesterday: 42 °F

High & Low Weather Summary for the Past Weeks

 TemperatureHumidityPressure
High45 °F (Jan 19, 12:20 pm)100% (Jan 7, 6:20 am)30.72 "Hg (Jan 7, 6:20 am)
Low0 °F (Jan 6, 3:20 am)63% (Jan 6, 11:20 pm)28.77 "Hg (Jan 11, 9:20 pm)
Average31 °F90%29.93 "Hg
* Reported Jan 5 9:20 pm — Jan 20 9:50 pm, Linköping, Weather by CustomWeather, © 2017

Note: Actual official high and low records may vary slightly from our data, if they occured in-between our weather recording intervals... More about our weather records

Advertising

Linköping Weather History for the Previous 24 Hours

Scroll right to see more
 ConditionsComfort  
Time TempWeatherWind HumidityBarometerVisibility
9:50 pm
Fri, Jan 20
39 °FClear.8 mph87%30.24 "Hg10 mi
9:20 pm41 °FPassing clouds.6 mph81%30.24 "HgN/A
8:50 pm41 °FClear.9 mph81%30.24 "Hg10 mi
8:20 pm41 °FClear.10 mph81%30.24 "Hg10 mi
7:50 pm41 °FClear.9 mph81%30.24 "Hg10 mi
7:20 pm41 °FClear.10 mph87%30.21 "Hg10 mi
6:50 pm41 °FClear.10 mph87%30.21 "Hg10 mi
6:20 pm43 °FClear.9 mph81%30.21 "Hg10 mi
5:50 pm43 °FClear.12 mph81%30.18 "Hg10 mi
5:20 pm43 °FClear.10 mph81%30.18 "Hg10 mi
4:50 pm43 °FClear.12 mph81%30.18 "Hg10 mi
4:20 pm43 °FClear.9 mph81%30.18 "Hg10 mi
3:50 pm45 °FClear.12 mph76%30.18 "Hg10 mi
3:20 pm45 °FSunny.13 mph76%30.15 "Hg10 mi
2:50 pm45 °FSunny.10 mph76%30.18 "Hg10 mi
2:20 pm45 °FPassing clouds.13 mph81%30.18 "HgN/A
1:50 pm45 °FSunny.15 mph81%30.18 "Hg10 mi
1:20 pm45 °FSunny.16 mph81%30.18 "Hg10 mi
12:50 pm45 °FPassing clouds.15 mph81%30.18 "HgN/A
12:20 pm45 °FSunny.16 mph81%30.18 "Hg10 mi
11:50 am45 °FSunny.14 mph81%30.18 "Hg10 mi
11:20 am43 °FSunny.14 mph87%30.18 "Hg10 mi
10:50 am43 °FPassing clouds.12 mph87%30.18 "HgN/A
10:20 am41 °FPassing clouds.6 mph87%30.18 "HgN/A
9:50 am39 °FPassing clouds.7 mph93%30.18 "HgN/A
9:20 am39 °FPassing clouds.8 mph93%30.18 "HgN/A
8:50 am39 °FPassing clouds.8 mph93%30.18 "HgN/A
8:20 am37 °FClear.8 mph93%30.18 "Hg10 mi
7:50 am39 °FClear.5 mph93%30.18 "Hg10 mi
7:20 am39 °FPassing clouds.3 mph93%30.18 "HgN/A
6:50 am37 °FPassing clouds.5 mph100%30.21 "HgN/A
6:20 am37 °FClear.6 mph100%30.21 "Hg10 mi
5:50 am39 °FPassing clouds.6 mph93%30.21 "HgN/A
5:20 am39 °FChilly.8 mph93%30.21 "HgN/A
4:50 am39 °FChilly.7 mph93%30.24 "HgN/A
4:20 am39 °FChilly.8 mph93%30.24 "HgN/A
3:50 am39 °FChilly.7 mph93%30.24 "HgN/A
3:20 am39 °FChilly.7 mph93%30.24 "HgN/A
2:50 am39 °FChilly.6 mph93%30.24 "HgN/A
2:20 am39 °FChilly.6 mph93%30.24 "HgN/A
1:50 am39 °FChilly.5 mph100%30.27 "HgN/A
12:50 am41 °FPassing clouds.7 mph93%30.27 "HgN/A
12:20 am41 °FQuite cool.8 mph93%30.27 "HgN/A
11:50 pm
Thu, Jan 19
41 °FQuite cool.8 mph93%30.27 "HgN/A
11:20 pm43 °FPassing clouds.8 mph87%30.27 "HgN/A
Weather by CustomWeather, © 2017

See weather overviewHow to use our weather pages